Location: *
(46.1866°S, 178.5290°W)
Time: 18:09:32
(UTC+00:00)

Okean O Rocket - Pass Details

Date: 19 May 2021
Orbit: 622 x 645 km, 98.2° (Epoch: 18 June)

Event Time Altitude Azimuth Distance (km) Brightness Sun altitude
Exits shadow 05:40:29 17° 88° (E) 1,663 3.2 -12.5°
Drops below altitude 10° 05:43:19 10° 49° (NE) 2,059 3.9 -12.9°
Sets 05:46:15 0° 28° (NNE) 2,959 4.9 -13.4°
